Location: Waco, TX
(31.5480°N, 97.1670°W)
Time: 20:27:04
(UTC-05:00)

ISS - Pass Details

Date: 16 August 2018
Orbit: 402 x 409 km, 51.6° (Epoch: 15 August)

Event Time Altitude Azimuth Distance (km) Brightness Sun altitude
Rises 12:20:23 0° 273° (W) 2,306 -0.2 65.5°
Reaches altitude 10° 12:23:56 10° 315° (NW) 1,450 -1.1 66.1°
Maximum altitude 12:24:44 11° 329° (NNW) 1,410 -1.2 66.2°
Drops below altitude 10° 12:25:33 10° 343° (NNW) 1,451 -1.1 66.3°
Sets 12:29:07 0° 25° (NNE) 2,313 -0.1 66.8°
